Wetbulb
58.37 58.37 58.19 57.99 57.65 57.30 57.10 57.10 57.30 57.21 57.38 57.45 57.31 57.24 57.27 57.01 57.02 57.50 57.93 58.22 58.23 58.05 58.30 59.03 60.18 61.55 57.18 49.76 53.62 60.59 73.31 70.92 64.91 62.96 60.14 59.20 57.12 56.14 56.91 59.74 59.57 59.37 62.31 64.59 64.80 64.85 64.91
57.72 57.60 57.47 57.28 57.13 56.95 56.78 56.78 56.76 56.80 56.89 57.02 57.20 56.90 56.93 56.96 56.94 57.08 57.23 57.65 57.28 57.62 58.23 59.15 60.56 62.29 53.47 46.56 56.67 59.28 56.76 56.84 59.76 60.63 59.74 58.83 58.10 58.83 56.04 56.49 57.23 60.67 63.11 62.93 63.76 65.94 65.62
57.36 57.05 57.15 56.95 56.61 56.45 56.47 56.47 56.45 56.45 56.62 56.62 56.82 56.88 56.52 56.80 56.96 56.75 56.41 56.97 57.01 57.24 58.10 59.45 60.96 61.03 51.81 48.94 55.27 56.07 55.00 53.93 55.44 57.18 55.61 59.12 59.58 56.75 56.67 54.89 58.22 63.48 60.39 62.27 63.05 64.95 64.77
57.45 56.82 56.49 56.42 56.26 56.11 55.97 56.15 56.15 56.17 56.05 56.28 56.45 56.65 56.35 56.37 56.42 55.93 55.76 56.04 56.68 57.58 58.54 59.96 61.00 55.31 45.37 52.81 55.75 58.05 54.39 53.64 55.19 55.33 57.98 59.41 60.22 57.72 55.73 57.41 57.52 59.66 58.72 54.91 61.60 63.38 64.85
56.84 56.67 56.34 56.21 55.96 55.76 55.43 55.63 55.82 55.69 55.73 55.87 56.04 56.18 55.98 56.00 55.79 55.41 55.39 55.69 56.92 58.78 59.43 60.61 52.48 49.85 48.03 59.75 55.21 56.42 54.54 52.80 54.16 54.85 56.93 61.89 58.81 55.20 55.55 51.83 49.68 53.62 52.34 53.22 57.80 62.59 61.31
56.69 56.69 56.36 56.02 55.67 55.52 55.36 55.16 55.28 55.34 55.55 55.52 55.88 55.77 56.03 55.79 55.27 54.58 55.00 55.11 56.75 56.78 58.23 60.37 58.92 46.64 49.22 51.49 54.57 53.38 52.94 54.53 53.58 54.02 55.22 56.32 53.96 51.64 50.23 48.57 44.40 47.74 49.73 54.63 54.60 59.83 59.53
56.34 56.23 56.21 55.86 55.50 55.36 55.02 54.96 54.93 55.17 55.44 55.40 55.70 56.11 55.41 55.25 54.74 54.04 51.37 50.18 48.61 48.15 51.13 45.75 45.14 46.41 50.71 52.52 54.52 52.27 52.49 52.47 52.69 52.35 47.95 51.93 50.01 47.32 50.32 50.98 52.09 51.31 52.39 53.24 56.55 60.03 58.44
56.00 55.68 55.90 55.71 55.38 55.21 54.85 54.65 54.57 54.85 55.04 55.38 55.17 55.71 55.74 54.61 54.11 53.69 48.87 46.48 49.56 51.16 45.95 51.56 52.85 51.10 52.37 51.96 50.62 51.64 52.01 48.58 49.21 47.89 50.89 49.20 46.48 51.60 53.71 54.36 53.63 52.32 51.18 51.15 54.49 59.44 57.63
56.01 55.78 55.17 55.23 55.23 54.91 54.50 54.35 54.33 54.50 54.61 55.03 54.82 54.97 55.08 54.12 53.63 49.31 46.96 49.09 52.85 51.47 44.20 49.49 51.28 51.43 51.74 52.13 50.60 50.08 50.93 49.22 50.08 48.06 49.17 47.16 51.18 54.92 53.90 53.34 52.80 48.40 47.99 50.38 51.40 57.40 56.02
56.37 56.77 56.12 54.87 54.95 54.79 54.43 54.41 54.39 54.54 54.38 54.40 54.53 54.32 54.43 53.12 49.83 49.58 50.75 53.06 52.98 51.99 40.88 45.81 47.80 51.92 52.52 51.68 48.13 52.60 51.03 50.64 50.36 50.46 50.81 49.20 53.01 53.64 52.24 52.63 52.38 47.92 53.74 53.61 53.60 50.51 45.41
56.41 56.94 56.70 56.34 54.75 54.45 54.26 54.31 54.57 54.43 54.30 54.76 54.91 53.99 53.50 52.67 47.03 49.28 53.83 51.54 52.23 50.07 34.70 51.05 48.94 54.20 48.58 48.32 46.99 50.14 52.95 52.85 49.77 50.99 50.43 49.53 50.40 50.21 50.26 52.44 53.94 52.50 54.75 52.06 52.83 46.45 44.19
57.12 56.91 56.43 56.12 55.91 56.04 55.61 55.43 55.35 55.06 54.98 55.00 54.63 54.15 53.31 49.91 49.59 49.47 51.89 52.40 50.45 42.36 37.60 48.11 49.82 47.18 45.03 44.57 46.50 49.90 50.90 52.85 52.95 50.68 48.52 49.65 51.45 50.92 50.92 53.39 54.49 55.09 49.96 47.72 44.55 42.05 39.06
57.12 56.84 56.40 56.09 56.06 55.85 55.23 55.59 55.39 55.14 54.70 53.74 53.38 52.31 51.82 52.19 48.60 52.29 51.86 50.06 41.10 36.50 48.78 46.14 43.44 42.82 41.94 42.96 44.57 46.30 47.54 46.39 45.75 42.29 41.61 46.40 47.63 49.03 50.74 47.43 48.75 48.36 43.51 39.13 39.05 37.92 38.50
57.17 57.05 56.79 56.32 56.11 55.69 55.51 55.69 55.39 54.92 54.14 53.10 51.73 51.04 50.98 51.35 50.16 51.14 50.91 46.55 35.88 44.39 44.54 47.77 42.48 42.22 42.44 44.78 44.62 46.27 45.56 44.13 45.49 44.73 40.52 40.35 41.65 45.75 48.78 47.83 47.42 44.80 44.33 40.51 35.57 35.57 39.56
57.47 57.39 56.73 56.16 56.07 55.67 55.73 55.45 54.98 54.68 53.78 52.57 51.04 47.86 47.30 49.48 51.49 49.93 48.85 38.96 39.89 44.85 49.42 47.73 44.07 41.10 40.15 44.15 45.27 44.16 44.23 44.32 46.86 45.57 42.58 39.03 41.94 49.36 49.53 49.06 48.43 45.26 42.45 44.51 39.24 36.84 38.71
57.49 57.35 56.57 56.34 56.01 55.69 55.63 55.33 54.94 54.37 53.38 52.06 47.80 48.83 50.66 52.71 53.02 50.71 45.88 40.34 43.70 49.99 50.47 47.96 42.42 42.53 38.87 41.45 41.87 41.93 42.91 47.59 47.03 48.00 46.58 42.87 40.14 44.77 51.57 52.00 53.64 46.69 47.17 41.38 39.08 35.53 34.39
57.49 57.09 56.40 56.30 55.97 55.83 55.75 55.25 54.78 54.15 52.64 51.61 49.45 49.26 53.75 53.20 50.80 48.47 41.72 42.18 48.11 51.44 51.11 47.24 44.58 43.42 43.59 42.81 43.23 41.04 44.16 46.91 50.79 47.81 46.86 43.98 42.11 44.30 51.48 48.60 46.84 48.34 46.01 41.61 40.76 39.59 38.29
57.80 57.10 56.44 56.24 55.99 55.95 55.83 55.29 54.35 53.15 51.69 49.28 48.98 48.52 53.41 51.18 44.89 40.65 40.38 45.92 48.69 48.31 48.89 47.36 47.03 46.28 45.19 44.82 42.78 42.72 43.66 45.51 49.71 47.99 44.99 45.83 41.50 39.40 45.35 51.98 53.09 49.41 47.22 43.28 40.66 39.74 40.08
58.02 57.12 56.64 56.12 55.91 56.04 55.75 54.96 54.03 52.86 51.98 48.84 48.07 49.82 53.00 51.57 40.51 40.25 43.49 47.47 48.33 48.38 47.99 47.60 47.78 48.89 49.45 46.19 42.55 44.53 45.16 49.87 51.28 48.42 49.62 50.29 43.77 40.65 43.55 47.05 50.16 48.86 47.69 46.42 42.68 40.38 39.21
58.22 57.24 56.73 56.12 56.08 56.12 55.57 54.80 53.82 53.02 52.15 49.97 49.97 49.69 48.81 47.69 44.60 43.89 42.64 45.40 47.53 53.70 51.25 49.77 49.02 49.03 48.85 48.09 46.65 44.13 47.51 53.80 54.58 51.22 60.85 55.56 43.91 43.76 41.80 43.55 46.12 46.48 48.95 48.20 44.21 41.13 40.70
58.86 57.67 56.69 55.87 55.86 56.10 55.69 54.94 54.05 52.95 52.03 48.99 50.57 50.52 51.85 46.63 47.49 44.66 44.20 46.66 48.98 48.20 52.94 53.89 51.49 53.13 50.47 46.38 46.66 47.98 50.26 51.41 54.63 56.66 52.94 50.54 45.26 44.49 45.33 49.67 49.31 48.71 49.58 50.16 46.01 44.53 43.63
58.79 57.96 56.74 55.93 55.61 55.78 55.68 55.20 54.49 53.16 51.61 50.10 52.33 51.10 53.72 49.59 49.85 50.16 45.22 46.71 48.46 49.38 53.53 52.86 51.34 54.17 51.41 47.35 48.32 47.83 49.99 48.71 48.47 51.92 48.68 49.58 45.53 45.56 44.25 48.90 49.41 47.73 49.85 50.22 50.04 48.80 48.30
58.99 58.44 56.85 55.95 55.43 55.38 55.26 55.19 54.66 53.16 49.59 44.25 49.00 53.72 52.45 48.96 50.01 48.69 48.68 48.69 50.60 53.16 56.61 57.79 55.34 52.38 51.28 53.47 53.52 52.33 51.98 51.53 51.90 47.91 47.15 47.38 46.21 43.62 41.71 47.70 45.99 43.15 46.94 49.03 49.49 49.87 51.52
58.66 58.57 57.05 55.99 55.12 54.96 55.06 55.23 54.84 54.05 52.18 47.58 45.39 50.14 49.34 48.91 51.66 52.37 53.49 54.28 53.77 54.34 55.06 56.25 54.92 51.79 54.76 56.65 55.16 52.19 50.79 52.12 52.60 48.38 48.66 46.13 44.70 42.74 42.71 43.31 38.23 46.75 51.55 52.93 51.74 52.61 53.26
58.40 58.59 57.25 55.88 54.92 54.74 54.61 54.86 55.11 54.35 53.60 49.19 46.00 48.35 48.51 45.88 51.92 54.34 53.60 53.20 53.58 51.68 54.52 56.20 55.29 56.46 55.01 52.52 49.02 47.31 47.51 48.96 49.73 51.97 48.10 48.09 44.37 40.49 42.43 40.35 44.03 47.02 49.39 50.36 48.90 49.12 55.58
58.30 58.15 57.24 55.84 54.85 54.28 54.39 54.72 54.78 54.27 53.52 46.67 46.07 48.46 49.20 46.48 48.22 56.12 52.26 51.65 49.76 49.05 50.78 55.94 56.49 56.12 53.07 47.88 46.77 42.24 42.12 45.66 45.54 50.10 52.19 47.55 44.48 43.43 38.60 39.15 37.19 44.28 52.40 53.33 51.80 45.76 56.78
57.99 57.91 57.14 55.83 54.52 54.01 54.21 54.39 54.25 54.16 53.57 49.44 45.87 47.45 49.16 46.00 48.85 50.14 49.97 48.55 51.67 52.10 49.99 52.68 54.72 54.34 52.48 46.75 44.75 43.22 44.15 49.39 44.86 46.13 46.53 47.10 44.77 41.66 40.06 39.56 43.69 49.03 54.24 53.88 42.64 44.57 55.76
57.29 57.51 56.83 55.81 54.25 53.74 53.85 53.83 53.82 53.77 53.64 50.06 45.42 47.62 47.34 44.86 46.61 51.69 54.14 50.93 48.65 51.69 49.67 51.68 51.68 52.95 51.42 48.14 45.60 45.34 44.50 46.86 46.99 48.34 47.84 44.60 43.05 41.14 40.51 39.26 39.73 53.62 53.27 47.20 49.46 52.99 56.13
56.87 57.21 56.83 55.77 54.17 53.64 53.44 53.52 53.44 53.33 53.22 50.96 42.50 46.70 48.79 46.41 47.07 51.04 54.64 56.96 53.90 52.66 53.69 53.00 51.60 51.90 52.53 49.15 47.71 46.63 45.87 45.26 44.41 43.56 48.40 45.51 47.28 45.84 45.59 45.34 50.69 51.92 51.43 52.98 54.67 53.39 53.43
MSLP
1019.06 1018.75 1018.48 1018.13 1017.87 1017.55 1017.22 1016.92 1016.59 1016.20 1015.85 1015.48 1015.17 1014.86 1014.49 1014.15 1013.80 1013.38 1013.01 1012.68 1012.38 1012.08 1011.70 1011.31 1010.96 1010.36 1009.46 1008.63 1005.86 1003.54 1003.36 1003.51 1003.50 1003.71 1003.70 1003.72 1003.61 1003.81 1003.98 1003.33 1003.05 1003.31 1003.85 1003.94 1004.29 1005.25 1005.96
1019.17 1018.86 1018.55 1018.24 1017.93 1017.60 1017.27 1016.94 1016.67 1016.30 1015.83 1015.46 1015.12 1014.80 1014.38 1013.98 1013.58 1013.20 1012.84 1012.53 1012.23 1011.94 1011.59 1011.18 1010.82 1010.44 1009.84 1007.90 1004.07 1003.61 1003.71 1003.58 1003.50 1003.62 1003.42 1003.79 1003.58 1003.48 1003.70 1003.45 1003.29 1003.38 1003.97 1004.48 1004.98 1005.44 1006.19
1019.19 1018.93 1018.60 1018.33 1017.99 1017.62 1017.28 1016.92 1016.65 1016.33 1015.94 1015.49 1015.10 1014.72 1014.31 1013.87 1013.38 1012.98 1012.67 1012.34 1012.03 1011.74 1011.45 1011.17 1010.84 1010.46 1009.42 1005.83 1003.81 1003.85 1003.73 1003.60 1003.44 1003.50 1003.45 1003.23 1003.40 1003.51 1003.21 1003.02 1003.14 1003.31 1004.96 1005.33 1005.82 1006.10 1006.87
1019.25 1018.97 1018.65 1018.36 1018.04 1017.65 1017.27 1016.87 1016.57 1016.26 1015.85 1015.39 1015.03 1014.63 1014.24 1013.78 1013.31 1012.87 1012.46 1012.02 1011.65 1011.44 1011.25 1011.08 1010.95 1010.56 1008.37 1004.59 1004.23 1003.90 1003.55 1003.17 1002.97 1003.07 1003.22 1002.74 1003.01 1003.26 1003.26 1003.24 1003.70 1004.35 1005.24 1006.08 1006.29 1006.54 1007.08
1019.35 1019.01 1018.68 1018.34 1017.97 1017.61 1017.21 1016.81 1016.46 1016.15 1015.74 1015.23 1014.82 1014.47 1014.05 1013.51 1013.01 1012.51 1011.91 1011.32 1010.83 1010.72 1010.78 1010.83 1010.90 1010.17 1007.35 1004.40 1004.13 1003.00 1003.11 1003.33 1003.01 1002.67 1002.56 1002.30 1002.70 1003.60 1003.82 1004.22 1005.09 1005.33 1005.73 1005.93 1006.37 1006.34 1006.72
1019.43 1019.04 1018.71 1018.35 1017.95 1017.55 1017.11 1016.75 1016.37 1015.99 1015.57 1015.09 1014.58 1014.16 1013.76 1013.23 1012.76 1012.32 1011.43 1010.54 1010.15 1010.27 1010.47 1010.43 1009.97 1009.67 1006.32 1004.54 1003.64 1003.09 1002.97 1002.91 1003.17 1003.18 1002.93 1003.08 1003.65 1004.17 1004.78 1005.10 1005.54 1005.45 1005.83 1005.75 1005.62 1005.92 1006.54
1019.49 1019.08 1018.68 1018.30 1017.92 1017.51 1017.08 1016.66 1016.31 1015.89 1015.41 1014.92 1014.41 1013.97 1013.49 1013.06 1012.64 1012.32 1011.35 1010.46 1010.58 1010.20 1009.71 1008.41 1007.82 1006.95 1005.47 1004.26 1003.37 1002.93 1002.87 1002.99 1003.28 1003.78 1004.31 1004.36 1004.83 1004.95 1004.88 1005.03 1004.81 1004.82 1005.00 1004.86 1005.05 1005.30 1006.16
1019.49 1019.07 1018.63 1018.23 1017.83 1017.45 1017.05 1016.59 1016.15 1015.71 1015.23 1014.69 1014.24 1013.78 1013.26 1012.79 1012.47 1012.27 1012.29 1011.04 1009.33 1008.93 1008.39 1006.92 1006.56 1006.08 1005.05 1004.61 1004.40 1003.05 1002.81 1003.39 1003.66 1004.33 1004.60 1004.98 1004.89 1004.19 1004.38 1004.43 1004.43 1004.31 1004.60 1004.58 1004.39 1004.76 1006.12
1019.49 1019.05 1018.60 1018.15 1017.73 1017.33 1016.97 1016.48 1015.98 1015.52 1015.02 1014.48 1014.03 1013.54 1013.04 1012.55 1012.16 1012.12 1011.71 1009.93 1008.61 1008.35 1008.40 1006.20 1005.46 1004.85 1004.17 1004.29 1003.95 1003.03 1002.85 1003.15 1003.59 1004.34 1004.60 1005.01 1004.09 1003.80 1003.98 1003.85 1004.04 1004.11 1004.15 1004.02 1004.38 1005.24 1006.32
1019.46 1019.02 1018.56 1018.09 1017.66 1017.23 1016.78 1016.30 1015.82 1015.26 1014.77 1014.24 1013.74 1013.30 1012.87 1012.22 1012.26 1011.94 1010.76 1009.03 1008.33 1008.40 1008.33 1005.93 1004.66 1003.30 1003.44 1003.45 1003.15 1002.22 1002.21 1002.71 1003.38 1003.84 1004.51 1004.49 1003.62 1003.55 1003.45 1003.54 1003.64 1003.82 1003.42 1003.87 1004.66 1005.57 1006.68
1019.43 1018.99 1018.54 1018.04 1017.56 1017.15 1016.66 1016.08 1015.55 1015.03 1014.42 1013.81 1013.42 1013.04 1012.76 1012.70 1012.64 1011.54 1009.37 1008.97 1008.40 1008.24 1007.55 1004.51 1003.51 1002.24 1002.46 1002.88 1002.63 1001.90 1001.82 1002.27 1003.07 1003.55 1004.16 1004.09 1003.50 1003.28 1003.23 1002.86 1003.13 1003.20 1003.22 1003.92 1004.45 1005.92 1006.68
1019.40 1018.98 1018.51 1018.01 1017.50 1017.01 1016.47 1015.84 1015.26 1014.68 1014.06 1013.40 1012.99 1012.79 1012.51 1012.39 1012.34 1009.83 1009.03 1008.62 1008.41 1008.77 1006.46 1003.77 1002.72 1002.47 1002.69 1002.67 1002.54 1001.96 1001.87 1002.15 1002.73 1003.64 1004.02 1003.88 1003.32 1003.01 1002.26 1001.94 1002.47 1002.72 1003.53 1004.80 1005.96 1006.77 1007.55
1019.33 1018.92 1018.45 1017.96 1017.44 1016.86 1016.27 1015.64 1015.00 1014.34 1013.68 1013.03 1012.49 1012.33 1012.50 1012.00 1010.44 1009.03 1008.65 1008.63 1009.31 1008.25 1005.42 1003.85 1002.99 1002.69 1002.70 1002.93 1002.82 1002.55 1002.40 1002.92 1003.46 1004.32 1004.84 1004.16 1003.35 1002.42 1002.11 1002.37 1002.52 1003.19 1004.76 1006.15 1007.36 1008.23 1008.27
1019.25 1018.84 1018.40 1017.89 1017.34 1016.74 1016.09 1015.40 1014.72 1013.98 1013.17 1012.41 1011.74 1011.48 1011.03 1010.31 1009.57 1009.42 1008.72 1009.23 1009.46 1007.21 1005.55 1003.55 1002.98 1003.05 1003.23 1003.12 1002.94 1002.82 1002.97 1003.62 1004.01 1004.46 1005.37 1004.86 1003.73 1002.49 1001.98 1002.21 1002.60 1003.54 1004.80 1006.44 1007.94 1008.95 1008.77
1019.12 1018.69 1018.29 1017.80 1017.24 1016.62 1015.96 1015.21 1014.43 1013.61 1012.66 1011.70 1010.81 1010.79 1010.59 1008.61 1009.21 1009.85 1009.40 1010.15 1008.75 1007.07 1005.41 1004.27 1003.32 1003.53 1003.65 1003.27 1003.23 1003.33 1003.53 1003.64 1003.85 1004.15 1004.92 1004.84 1003.84 1002.43 1002.15 1001.84 1002.41 1003.74 1004.98 1005.83 1007.58 1009.08 1009.39
1019.03 1018.63 1018.17 1017.68 1017.11 1016.47 1015.77 1015.05 1014.26 1013.32 1012.30 1011.35 1010.93 1010.41 1009.14 1007.88 1008.47 1009.15 1009.69 1009.76 1008.46 1006.61 1005.30 1004.43 1003.96 1003.89 1004.20 1003.76 1003.81 1003.64 1003.70 1002.73 1003.24 1003.35 1003.36 1004.43 1004.55 1003.07 1002.29 1002.14 1002.47 1003.02 1004.53 1006.17 1007.82 1009.33 1010.00
1018.86 1018.48 1018.08 1017.59 1017.03 1016.39 1015.70 1014.98 1014.15 1013.16 1012.01 1011.10 1010.83 1009.93 1008.15 1007.76 1008.13 1009.23 1010.05 1009.46 1007.78 1006.08 1005.27 1004.87 1004.50 1004.48 1004.27 1003.90 1003.62 1003.42 1002.95 1002.15 1002.08 1002.66 1003.39 1004.48 1004.90 1004.01 1003.45 1003.40 1003.31 1003.93 1005.09 1006.73 1008.03 1008.89 1009.99
1018.66 1018.31 1017.90 1017.46 1016.96 1016.35 1015.66 1014.92 1014.16 1013.27 1012.09 1011.17 1011.04 1009.87 1008.34 1008.57 1008.90 1010.03 1009.96 1008.36 1007.01 1005.79 1005.20 1005.09 1004.51 1004.12 1003.99 1003.69 1003.18 1002.95 1002.23 1001.18 1000.71 1001.95 1003.47 1003.98 1005.21 1005.51 1004.92 1004.61 1003.97 1004.35 1005.51 1006.79 1008.13 1009.37 1009.93
1018.42 1018.14 1017.78 1017.36 1016.91 1016.35 1015.66 1014.91 1014.23 1013.52 1013.11 1012.82 1011.65 1010.30 1008.63 1008.48 1009.25 1009.84 1009.06 1007.74 1006.70 1005.79 1005.12 1004.46 1003.78 1003.26 1002.63 1003.08 1003.07 1001.88 1001.03 1000.16 1000.60 1001.58 1002.28 1003.74 1005.06 1005.90 1005.95 1005.40 1004.52 1005.02 1005.53 1006.17 1007.48 1008.44 1009.77
1018.14 1017.94 1017.66 1017.31 1016.83 1016.27 1015.66 1014.93 1014.20 1013.34 1012.47 1012.70 1011.85 1010.91 1009.71 1009.14 1009.30 1009.17 1008.73 1007.42 1006.17 1004.93 1004.09 1003.63 1003.11 1002.61 1002.40 1002.24 1002.07 1001.69 1000.67 1000.35 1000.32 1000.82 1001.63 1002.61 1004.80 1005.14 1005.49 1005.35 1005.22 1005.52 1005.83 1006.17 1006.92 1008.31 1009.08
1017.85 1017.73 1017.52 1017.24 1016.85 1016.36 1015.79 1015.04 1014.27 1013.52 1012.78 1012.72 1011.93 1011.34 1010.48 1010.03 1009.64 1009.24 1008.50 1007.25 1006.33 1005.43 1004.01 1003.56 1002.95 1002.61 1002.43 1002.44 1002.28 1001.84 1000.96 1000.77 1000.87 1001.28 1002.17 1003.04 1004.89 1005.21 1005.62 1005.24 1005.02 1005.13 1005.37 1005.58 1006.20 1006.81 1007.77
1017.53 1017.46 1017.30 1017.09 1016.80 1016.39 1015.92 1015.26 1014.48 1013.66 1013.02 1012.99 1012.33 1011.80 1010.76 1010.22 1009.47 1008.96 1007.96 1006.78 1005.63 1004.90 1004.27 1003.73 1003.59 1002.59 1002.27 1002.44 1002.02 1001.37 1001.38 1001.75 1001.98 1002.11 1002.80 1003.54 1005.32 1005.73 1006.41 1005.92 1005.27 1004.83 1004.77 1005.04 1005.44 1005.99 1006.75
1017.18 1017.12 1017.06 1016.94 1016.75 1016.41 1016.03 1015.46 1014.88 1014.12 1012.97 1013.42 1012.59 1011.69 1011.22 1010.44 1009.77 1009.02 1007.69 1006.26 1004.93 1004.43 1003.70 1003.80 1003.95 1003.62 1002.67 1002.62 1002.34 1002.08 1001.83 1002.06 1002.39 1002.81 1003.97 1004.73 1005.83 1006.77 1007.14 1006.46 1005.68 1004.93 1004.20 1004.13 1004.54 1005.07 1005.91
1016.91 1016.81 1016.79 1016.73 1016.62 1016.36 1016.07 1015.61 1015.16 1014.86 1014.72 1014.82 1013.71 1013.14 1012.26 1011.15 1010.01 1008.78 1007.42 1006.14 1004.89 1004.16 1004.12 1004.31 1004.54 1004.25 1003.10 1002.79 1002.87 1002.91 1002.72 1002.51 1002.58 1003.36 1003.83 1005.33 1006.50 1007.37 1007.84 1006.92 1006.29 1004.67 1003.83 1003.55 1004.19 1004.89 1005.43
1016.61 1016.53 1016.50 1016.50 1016.43 1016.27 1016.04 1015.70 1015.24 1014.96 1014.77 1014.61 1013.98 1013.56 1012.87 1011.87 1010.39 1008.34 1007.20 1005.98 1005.21 1004.86 1004.84 1004.56 1004.37 1004.07 1003.32 1003.40 1003.66 1003.68 1003.69 1003.55 1003.74 1003.61 1004.19 1005.18 1006.49 1007.93 1008.36 1007.86 1006.68 1004.60 1004.14 1004.12 1004.36 1005.46 1005.68
1016.32 1016.29 1016.23 1016.23 1016.18 1016.08 1015.86 1015.65 1015.28 1014.84 1014.52 1014.16 1013.89 1013.39 1013.06 1012.39 1010.30 1008.76 1007.57 1006.55 1005.90 1005.61 1005.00 1004.06 1004.33 1004.10 1003.61 1004.33 1004.69 1005.47 1005.35 1004.50 1004.41 1003.62 1003.76 1005.56 1006.36 1007.52 1008.53 1008.15 1007.03 1005.10 1004.11 1004.11 1004.50 1005.80 1006.04
1015.95 1015.96 1015.97 1016.03 1016.02 1015.91 1015.72 1015.52 1015.26 1014.85 1014.46 1014.30 1013.77 1013.24 1012.98 1012.60 1010.07 1008.89 1007.84 1006.76 1006.11 1005.93 1005.88 1005.75 1005.38 1004.74 1004.49 1005.55 1006.10 1006.16 1005.60 1004.97 1005.08 1004.91 1005.24 1005.90 1007.24 1007.94 1008.12 1007.72 1006.54 1005.05 1004.63 1004.54 1005.33 1006.51 1006.41
1015.58 1015.61 1015.69 1015.76 1015.77 1015.73 1015.53 1015.35 1015.16 1014.86 1014.52 1014.31 1013.67 1013.14 1013.11 1012.61 1010.31 1008.54 1007.36 1006.51 1006.13 1006.24 1006.32 1005.93 1005.85 1005.43 1005.79 1006.43 1006.80 1006.60 1006.03 1005.45 1005.62 1005.48 1005.40 1006.35 1006.96 1007.60 1007.84 1007.38 1006.33 1004.88 1005.07 1005.47 1005.72 1006.43 1006.87
1015.17 1015.22 1015.34 1015.45 1015.50 1015.53 1015.40 1015.18 1014.99 1014.82 1014.54 1014.22 1014.16 1013.16 1013.08 1013.03 1009.98 1008.14 1006.86 1005.90 1005.57 1005.62 1006.41 1006.29 1006.09 1005.98 1006.11 1006.58 1006.96 1007.06 1006.55 1006.22 1005.85 1006.21 1005.60 1005.82 1005.78 1006.19 1007.06 1006.67 1005.92 1005.64 1005.49 1005.37 1005.67 1006.38 1007.70
Wind_Speed
14 14 14 13 13 13 13 13 13 13 14 15 15 16 17 16 16 16 16 16 16 16 16 16 16 16 6 3 11 6 8 5 2 1 5 2 5 4 4 4 1 4 3 7 8 8 11
14 14 14 14 14 14 14 13 13 14 14 15 16 17 17 18 17 17 16 16 16 15 15 15 15 15 1 5 5 1 7 7 1 1 5 3 4 5 4 4 2 3 5 9 6 8 13
15 14 14 15 14 14 14 14 14 14 14 15 16 17 18 19 18 17 17 17 16 15 14 13 12 5 1 16 3 9 7 3 2 3 4 3 2 2 3 4 0 11 10 7 4 5 7
14 15 15 15 15 14 14 14 15 15 15 16 16 17 19 19 18 18 18 18 17 14 12 10 6 2 9 6 5 10 1 8 5 6 4 5 8 5 1 2 6 6 5 6 4 7 8
15 15 15 15 15 15 15 15 15 15 15 16 17 17 19 20 19 18 18 20 19 13 8 5 1 2 11 9 4 8 7 5 5 4 3 3 4 1 4 4 5 0 8 4 6 7 6
15 15 15 15 15 16 16 16 16 16 16 17 17 18 17 19 19 19 21 16 6 3 3 5 4 2 6 3 5 3 4 3 0 5 9 8 6 3 5 5 1 5 6 3 8 15 7
16 16 15 15 16 16 16 16 16 17 17 17 17 16 19 19 18 16 11 4 4 3 1 10 6 5 6 8 3 3 1 4 3 7 1 3 6 4 8 5 4 4 1 3 8 7 7
17 17 16 16 16 16 16 17 17 17 17 18 18 16 16 20 17 15 2 0 2 4 7 10 10 8 5 4 6 5 4 4 4 5 1 7 3 7 4 5 7 0 2 5 5 8 6
16 17 17 17 16 16 17 17 17 17 17 17 18 18 17 18 18 3 1 6 5 6 1 9 7 6 5 8 7 9 10 6 4 5 4 5 9 2 3 4 1 1 2 6 5 6 4
16 15 16 17 17 17 17 17 17 17 18 18 19 19 15 21 2 3 4 4 8 6 5 8 4 9 5 6 5 7 7 7 2 9 7 5 5 6 6 6 5 4 6 7 11 9 7
16 15 15 15 17 17 16 16 16 16 17 16 15 18 14 7 5 2 1 6 3 4 3 2 4 1 2 9 2 5 5 5 5 5 7 8 2 5 5 8 6 11 1 3 3 5 7
16 15 16 16 17 16 16 16 16 17 18 19 18 14 13 2 3 8 8 7 4 8 6 3 5 5 5 2 2 5 4 4 3 4 1 7 3 4 8 10 5 1 4 7 5 4 2
16 16 16 17 17 17 17 17 18 19 20 21 17 12 4 3 5 5 5 4 7 4 6 3 5 4 3 4 2 2 3 4 5 4 4 7 6 5 4 4 4 7 7 4 5 5 7
16 14 15 16 16 17 18 19 20 20 23 24 19 14 6 6 4 6 3 7 2 4 7 6 3 4 6 4 5 4 3 3 2 5 3 2 7 1 2 6 9 5 8 7 6 3 4
14 14 15 15 16 18 19 20 21 22 25 25 16 1 3 5 12 2 7 4 8 5 5 7 3 5 2 4 5 3 6 8 9 9 8 5 6 6 5 6 9 5 2 5 7 3 3
13 14 15 16 17 18 19 21 22 24 26 24 2 2 4 5 12 4 6 5 5 5 6 5 3 2 2 3 4 6 7 8 6 10 6 3 3 2 5 3 6 4 5 4 4 3 2
13 14 15 16 17 18 19 21 22 24 27 11 2 3 3 4 2 6 4 7 5 7 7 6 3 4 5 5 7 7 9 5 14 7 8 6 5 9 5 3 3 4 4 6 5 5 6
12 13 14 15 16 18 19 21 22 22 25 6 2 4 1 1 5 2 3 7 4 5 1 6 4 8 6 4 6 8 12 9 13 11 12 7 6 5 7 8 3 3 4 5 6 3 2
11 12 14 15 16 18 19 21 21 19 14 4 2 1 3 3 3 2 5 5 4 4 6 5 6 9 8 6 3 10 9 9 5 9 11 9 3 2 7 7 4 5 1 5 5 3 1
10 11 14 14 16 17 19 20 21 22 20 4 2 3 4 3 1 4 2 6 4 4 7 5 7 6 4 4 3 7 8 5 2 11 10 10 5 9 9 7 5 4 1 1 6 4 3
9 10 12 14 16 16 18 20 21 23 14 2 2 1 1 2 4 3 4 5 9 7 6 1 5 2 4 3 1 2 2 4 6 5 6 6 5 5 1 4 4 6 7 6 5 6 6
9 9 11 13 15 16 16 18 20 23 12 1 2 3 3 2 3 4 3 5 8 7 1 8 3 9 3 4 5 5 6 3 1 8 4 4 3 4 2 2 4 3 5 4 4 2 4
10 8 9 11 13 15 16 16 17 19 13 3 3 3 2 3 4 0 4 6 6 9 6 2 5 4 7 5 5 4 5 6 5 5 4 5 6 3 4 3 1 4 3 4 2 4 8
10 8 8 10 12 14 15 15 15 13 10 1 3 1 2 4 2 3 6 7 2 5 4 5 2 4 2 5 3 2 5 7 10 9 7 4 5 3 2 3 2 8 7 4 8 3 2
9 8 7 8 10 12 14 14 14 13 10 2 3 1 1 3 3 6 7 6 4 3 1 5 1 6 1 4 4 7 8 7 4 6 9 6 5 4 5 2 5 5 1 2 4 1 1
9 9 7 7 9 10 13 14 14 14 13 1 3 2 1 2 5 4 4 4 3 2 4 2 3 6 3 4 5 3 3 4 3 8 8 8 8 5 3 4 6 7 7 2 3 2 3
8 8 6 6 7 9 11 13 14 15 14 3 3 1 2 1 5 1 3 3 2 1 2 3 3 6 2 3 4 2 1 1 2 4 2 4 5 4 3 2 6 7 5 2 2 9 4
8 8 6 6 6 8 10 12 13 14 15 6 4 2 2 2 7 6 4 3 3 1 1 2 5 5 5 4 3 3 2 4 4 5 8 6 6 4 3 3 4 2 1 5 6 3 7
8 7 7 7 6 7 8 10 11 12 13 9 3 3 2 3 8 3 8 11 6 10 2 3 4 5 5 3 2 1 0 0 4 2 1 3 6 5 7 6 4 4 4 2 5 8 5
Wind_Direction
6 5 3 2 1 1 1 359 356 355 351 348 345 341 342 336 331 326 323 322 323 322 320 320 323 325 339 341 251 292 8 28 80 14 283 1 347 21 15 238 32 94 156 137 142 127 126
4 2 360 358 356 358 357 356 352 349 349 347 343 341 337 337 331 326 322 320 316 314 313 315 321 320 327 273 252 290 2 342 244 243 274 138 261 258 255 269 114 127 129 123 106 100 128
2 0 358 355 353 354 353 352 348 346 344 344 341 340 336 335 330 325 319 314 308 304 302 304 314 320 337 235 312 324 322 267 210 213 268 181 178 319 284 344 258 125 109 65 72 87 103
360 358 357 355 352 351 350 349 347 344 342 342 340 339 336 334 330 323 316 307 297 290 284 284 291 293 249 260 303 294 199 302 264 239 214 270 176 225 261 340 31 81 52 122 248 146 166
360 357 354 352 350 349 349 347 344 341 339 340 339 338 337 333 330 324 313 305 292 279 252 243 220 175 265 308 280 270 159 229 314 322 271 251 110 146 38 70 51 43 172 177 162 211 153
356 355 354 351 350 347 345 346 343 339 337 336 338 337 335 334 330 328 316 300 282 277 189 196 257 352 278 311 281 269 225 158 356 352 354 26 47 54 41 65 213 214 164 211 176 201 180
358 355 353 351 349 347 344 343 341 338 335 334 334 332 334 332 330 334 348 12 24 346 212 201 194 246 291 291 302 288 61 121 87 58 317 349 50 263 257 219 204 174 284 221 208 199 152
358 356 352 351 349 347 344 341 338 335 333 332 332 325 330 331 326 322 322 156 195 218 305 232 244 263 270 73 308 286 131 140 123 194 205 15 259 248 273 231 254 46 85 260 247 170 135
357 356 354 350 349 347 344 340 336 333 331 329 329 328 328 326 320 336 210 233 250 15 332 290 199 216 199 143 210 262 148 156 156 173 165 159 246 0 246 267 278 325 229 262 193 135 46
355 350 351 353 349 347 343 340 336 331 328 327 326 328 329 327 328 335 252 275 301 175 49 276 246 265 157 172 269 214 192 141 183 191 160 219 271 235 292 272 125 326 229 271 141 124 198
353 349 348 347 352 349 344 338 332 330 320 313 317 325 325 342 303 220 115 331 318 55 342 187 211 39 123 147 246 221 172 55 175 165 100 250 295 341 295 245 141 232 189 316 152 127 108
349 348 349 347 343 336 332 327 324 321 316 313 316 319 325 77 221 245 307 305 76 44 258 323 141 166 124 111 272 316 144 81 153 139 351 246 281 224 237 280 184 1 61 39 56 93 60
346 346 344 343 339 335 337 329 326 323 322 322 313 304 274 283 232 316 292 65 44 149 320 203 188 153 134 151 211 282 180 129 150 103 326 329 268 259 190 257 15 76 62 351 0 10 226
343 342 341 339 337 336 333 331 330 327 328 324 313 299 234 221 258 331 32 52 141 245 261 296 128 81 158 153 243 187 148 206 62 98 112 134 325 236 153 185 208 173 144 156 207 206 266
336 340 340 338 337 336 334 334 333 332 331 329 317 100 240 246 205 338 74 89 215 220 290 353 29 88 302 250 189 130 207 213 188 164 166 153 273 295 172 218 141 191 181 183 108 29 64
332 337 338 337 339 337 337 338 337 335 335 333 346 332 257 125 156 89 79 223 240 234 337 358 83 57 225 279 164 157 183 210 218 184 154 212 294 242 313 345 42 122 152 55 15 164 234
328 331 334 337 339 338 339 340 339 337 340 339 348 33 294 167 162 54 162 234 274 273 5 358 2 346 229 247 200 182 224 244 192 195 132 141 112 283 41 345 162 28 23 57 118 120 154
322 327 332 337 338 339 341 341 341 339 341 34 338 50 346 48 65 52 152 203 233 269 182 257 231 214 228 210 250 214 209 228 177 153 158 195 138 238 214 317 25 100 128 125 124 221 67
315 323 329 335 338 340 343 341 340 340 357 323 51 302 355 58 142 249 273 271 238 264 232 229 237 219 242 232 227 202 207 203 198 153 170 181 219 79 352 343 20 53 26 97 96 90 177
305 320 329 335 338 342 344 342 343 342 343 158 80 72 343 46 145 153 266 269 258 293 259 219 245 223 230 232 168 273 210 34 48 188 108 106 131 160 179 192 153 127 222 93 125 93 189
297 313 324 332 339 343 346 345 346 348 359 355 37 271 167 229 285 258 187 285 289 313 242 41 273 247 247 230 183 227 38 28 28 1 82 138 120 102 56 128 144 168 180 186 182 165 160
292 302 319 329 338 343 349 349 349 352 356 337 40 35 341 269 324 332 160 245 210 260 309 326 307 312 24 202 227 150 128 103 40 21 54 12 133 110 112 210 193 182 242 225 241 151 108
293 288 311 325 336 342 351 351 355 1 359 28 317 322 98 274 309 9 231 259 253 162 226 212 293 305 15 345 335 2 75 112 124 101 70 58 115 78 181 5 334 24 253 180 184 159 147
296 285 298 319 333 340 349 352 357 8 31 290 262 345 67 267 254 231 296 293 312 201 159 238 242 242 271 333 338 292 59 86 84 71 101 98 77 59 140 32 99 239 306 213 113 38 121
290 286 286 309 326 337 345 352 353 357 2 311 282 95 114 262 258 291 309 312 338 332 135 161 315 235 269 57 41 26 354 24 318 137 72 96 111 91 129 169 291 324 264 277 149 282 23
280 284 275 299 320 334 340 348 352 353 355 85 250 206 132 105 250 316 310 316 317 341 325 59 329 288 30 68 56 106 181 198 322 347 96 117 75 107 105 129 199 245 301 3 107 325 221
274 275 266 289 310 326 335 343 350 354 353 341 277 263 100 206 267 308 253 270 311 18 265 306 312 3 67 46 61 146 225 131 102 131 149 18 25 170 156 169 278 248 275 345 85 236 150
265 268 261 266 295 317 329 338 347 353 357 5 274 261 90 242 268 227 251 254 356 92 193 262 38 348 34 65 105 255 154 217 112 182 164 168 153 192 79 101 269 187 113 173 198 45 129
258 257 250 255 280 303 322 332 341 349 355 12 309 332 3 189 252 266 250 244 209 228 158 311 197 165 163 82 94 206 201 15 138 238 9 175 187 178 159 217 251 300 254 45 139 130 121